* Astronomy

Members Login
Username 
 
Password 
    Remember Me  
Post Info TOPIC: Asteroid 2012 UZ33


L

Posts: 131433
Date:
Asteroid 2012 UZ33
Permalink  
 


Orbital elements:
2012 UZ33                                           PHA, Earth MOID = 0.0041 AU
Epoch 2012 Sept. 30.0 TT = JDT 2456200.5                MPC
M  34.26736              (2000.0)            P               Q
n   0.34231448     Peri.  220.41143     +0.55548363     +0.82897917
a   2.0238852      Node    83.42789     -0.74503159     +0.53091798
e   0.5489091      Incl.    3.75442     -0.36927749     +0.17583983
P   2.88           H   18.8           G   0.15           U   9

MPEC 2012 - U56



__________________
Page 1 of 1  sorted by
 
Quick Reply

Please log in to post quick replies.



Create your own FREE Forum
Report Abuse
Powered by ActiveBoard